BEIDOU-3 M19 (C41)

Last updated on Fri Dec 12 2025 00:03:28 GMT+0000 (Coordinated Universal Time)

1 44864U 19090A 25344.99143123 -.00000060 00000+0 00000+0 0 9990 2 44864 56.3920 69.0187 0017877 285.2046 73.1126 1.86231263 40726
UTC large
Height (km)
Speed (km/s)
/
Latitude / Longitude
Inclination (degrees)
Orbital Period (minutes)
Azimuth
Elevation
Range (km)
Doppler Factor

Next 0 passes for location: London (51.5072 / 0.1276)

Sorry there are no passes over London.